EW6553 Weather Reports


time (UTC)temp
C
wind
direction
speed
KPH
gust
KPH
rain 1hr
cm
rain 24hr
cm
rain mn
cm
humidity
%
barometer
mb
20190322165455 22 102 1.6 4.8 0.00 0.00 0.00 34 1022.5
20190322164954 21 44 1.6 8.0 0.00 0.00 0.00 35 1022.6
20190322164453 21 169 4.8 8.0 0.00 0.00 0.00 34 1022.7
20190322163955 21 176 1.6 8.0 0.00 0.00 0.00 36 1022.9
20190322163454 21 204 0.0 4.8 0.00 0.00 0.00 36 1023.0
20190322162955 21 199 1.6 4.8 0.00 0.00 0.00 35 1023.0
20190322162454 20 90 1.6 8.0 0.00 0.00 0.00 36 1022.9
20190322161953 20 71 3.2 8.0 0.00 0.00 0.00 36 1022.9
20190322161454 20 204 1.6 9.7 0.00 0.00 0.00 38 1022.8
20190322160954 20 87 1.6 9.7 0.00 0.00 0.00 39 1022.8
20190322160453 20 102 1.6 6.4 0.00 0.00 0.00 39 1022.9
20190322155953 19 102 1.6 6.4 0.00 0.00 0.00 38 1023.0
20190322155454 19 99 0.0 9.7 0.00 0.00 0.00 40 1023.0
20190322154953 19 104 6.4 9.7 0.00 0.00 0.00 40 1023.0
20190322154455 18 76 3.2 6.4 0.00 0.00 0.00 41 1023.0
20190322153953 18 94 3.2 9.7 0.00 0.00 0.00 41 1022.9
20190322153453 18 87 3.2 9.7 0.00 0.00 0.00 42 1023.0
20190322152952 18 71 0.0 8.0 0.00 0.00 0.00 44 1023.0
20190322152452 18 123 3.2 8.0 0.00 0.00 0.00 43 1023.0
20190322151952 17 87 1.6 8.0 0.00 0.00 0.00 45 1023.0
20190322151451 17 93 1.6 6.4 0.00 0.00 0.00 44 1023.0
20190322150953 17 107 1.6 9.7 0.00 0.00 0.00 45 1023.1
20190322150453 17 72 1.6 9.7 0.00 0.00 0.00 46 1023.1
20190322145953 16 104 3.2 9.7 0.00 0.00 0.00 46 1023.0
20190322145452 16 117 1.6 8.0 0.00 0.00 0.00 47 1023.0
20190322144952 16 104 0.0 8.0 0.00 0.00 0.00 49 1023.0
20190322144452 16 107 0.0 6.4 0.00 0.00 0.00 51 1023.2
20190322143952 16 188 1.6 6.4 0.00 0.00 0.00 51 1023.2
20190322143452 16 100 3.2 6.4 0.00 0.00 0.00 49 1023.2
20190322142951 16 93 1.6 3.2 0.00 0.00 0.00 52 1023.4
20190322142452 15 71 0.0 1.6 0.00 0.00 0.00 54 1023.4
20190322141951 15 71 0.0 1.6 0.00 0.00 0.00 55 1023.4
20190322141452 15 71 0.0 3.2 0.00 0.00 0.00 58 1023.6
20190322140951 15 71 1.6 3.2 0.00 0.00 0.00 58 1023.8
20190322140451 14 71 0.0 3.2 0.00 0.00 0.00 59 1023.7
20190322135950 13 69 0.0 1.6 0.00 0.00 0.00 61 1023.7
20190322135450 13 69 0.0 0.0 0.00 0.00 0.00 65 1023.7
20190322134951 12 69 0.0 0.0 0.00 0.00 0.00 70 1023.7
20190322134449 11 69 0.0 0.0 0.00 0.00 0.00 74 1023.7
20190322133952 10 324 0.0 0.0 0.00 0.00 0.00 81 1023.6
20190322133450 10 324 0.0 0.0 0.00 0.00 0.00 85 1023.6
20190322132951 9 326 0.0 0.0 0.00 0.00 0.00 88 1023.3
20190322132450 8 326 0.0 0.0 0.00 0.00 0.00 90 1023.2
20190322131950 8 326 0.0 0.0 0.00 0.00 0.00 91 1023.1
20190322131503 7 326 0.0 0.0 0.00 0.00 0.00 91 1022.9
20190322130949 7 326 0.0 0.0 0.00 0.00 0.00 91 1022.8
20190322130450 6 326 0.0 0.0 0.00 0.00 0.00 91 1022.6
20190322125949 6 326 0.0 0.0 0.00 0.00 0.00 90 1022.5
20190322125450 6 326 0.0 0.0 0.00 0.00 0.00 90 1022.4
20190322124949 6 326 0.0 0.0 0.00 0.00 0.00 90 1022.3
20190322124450 6 326 0.0 0.0 0.00 0.00 0.00 91 1022.2
20190322123949 6 326 0.0 0.0 0.00 0.00 0.00 91 1022.2
20190322123448 6 326 0.0 0.0 0.00 0.00 0.00 91 1022.0
20190322122949 6 326 0.0 0.0 0.00 0.00 0.00 91 1021.9
20190322122448 6 326 0.0 0.0 0.00 0.00 0.00 91 1021.9
20190322121949 6 326 0.0 0.0 0.00 0.00 0.00 92 1021.9
20190322121448 6 326 0.0 0.0 0.00 0.00 0.00 91 1021.9
20190322120950 6 326 0.0 0.0 0.00 0.00 0.00 91 1021.9
20190322120448 6 326 0.0 0.0 0.00 0.00 0.00 91 1021.8
20190322115948 6 326 0.0 0.0 0.00 0.00 0.00 91 1022.0
20190322115448 6 326 0.0 0.0 0.00 0.00 0.00 91 1021.8
20190322114949 6 326 0.0 0.0 0.00 0.00 0.00 92 1021.8
20190322114448 6 326 0.0 0.0 0.00 0.00 0.00 91 1021.9
20190322113946 6 326 0.0 0.0 0.00 0.00 0.00 92 1021.8
20190322113448 6 326 0.0 0.0 0.00 0.00 0.00 92 1021.7
20190322112947 6 326 0.0 0.0 0.00 0.00 0.00 91 1021.7
20190322112448 6 326 0.0 0.0 0.00 0.00 0.00 91 1021.7
20190322111947 6 326 0.0 0.0 0.00 0.00 0.00 91 1021.7
20190322111447 6 326 0.0 0.0 0.00 0.00 0.00 91 1021.7
20190322110947 6 326 0.0 0.0 0.00 0.00 0.00 91 1021.6
20190322110447 6 326 0.0 0.0 0.00 0.00 0.00 91 1021.5
20190322105947 6 326 0.0 0.0 0.00 0.00 0.00 91 1021.5
20190322105447 6 326 0.0 0.0 0.00 0.00 0.00 91 1021.6
20190322104947 6 326 0.0 0.0 0.00 0.00 0.00 92 1021.5
20190322104446 6 326 0.0 0.0 0.00 0.00 0.00 92 1021.5
20190322103948 6 326 0.0 0.0 0.00 0.00 0.00 93 1021.6
20190322103447 6 326 0.0 0.0 0.00 0.00 0.00 93 1021.5
20190322102946 6 326 0.0 0.0 0.00 0.00 0.00 91 1021.6
20190322102446 6 326 0.0 0.0 0.00 0.00 0.00 92 1021.7
20190322101945 6 326 0.0 0.0 0.00 0.00 0.00 93 1021.6
20190322101446 6 326 0.0 0.0 0.00 0.00 0.00 93 1021.6
20190322100945 6 326 0.0 0.0 0.00 0.00 0.00 92 1021.6
20190322100447 6 326 0.0 0.0 0.00 0.00 0.00 90 1021.6
20190322095945 6 326 0.0 0.0 0.00 0.00 0.00 90 1021.6
20190322095446 6 326 0.0 0.0 0.00 0.00 0.00 90 1021.6
20190322094945 6 326 0.0 0.0 0.00 0.00 0.00 89 1021.6
20190322094446 6 326 0.0 0.0 0.00 0.00 0.00 89 1021.5
20190322093945 6 326 0.0 0.0 0.00 0.00 0.00 89 1021.6
20190322093445 6 326 0.0 0.0 0.00 0.00 0.00 90 1021.6
20190322092945 6 326 0.0 0.0 0.00 0.00 0.00 88 1021.5
20190322092444 6 326 0.0 0.0 0.00 0.00 0.00 88 1021.5
20190322091945 6 326 0.0 0.0 0.00 0.00 0.00 88 1021.4
20190322091444 6 326 0.0 0.0 0.00 0.00 0.00 88 1021.4
20190322090945 6 326 0.0 0.0 0.00 0.00 0.00 88 1021.4
20190322090444 7 326 0.0 0.0 0.00 0.00 0.00 88 1021.5
20190322085944 6 326 0.0 0.0 0.00 0.00 0.00 87 1021.5
20190322085443 7 326 0.0 0.0 0.00 0.00 0.00 87 1021.5
20190322084943 7 326 0.0 0.0 0.00 0.00 0.00 87 1021.4
20190322084443 7 326 0.0 0.0 0.00 0.00 0.00 86 1021.5
20190322083943 7 326 0.0 0.0 0.00 0.00 0.00 86 1021.5
20190322083444 7 326 0.0 0.0 0.00 0.00 0.00 86 1021.6
20190322082943 7 326 0.0 0.0 0.00 0.00 0.00 86 1021.5
20190322082443 7 326 0.0 0.0 0.00 0.00 0.00 86 1021.5
20190322081943 7 326 0.0 0.0 0.00 0.00 0.00 88 1021.5
20190322081443 7 326 0.0 0.0 0.00 0.00 0.00 89 1021.5
20190322080943 7 326 0.0 0.0 0.00 0.00 0.00 89 1021.4
20190322080443 7 326 0.0 0.0 0.00 0.00 0.00 88 1021.5
20190322075943 7 326 0.0 0.0 0.00 0.00 0.00 87 1021.5
20190322075442 7 326 0.0 0.0 0.00 0.00 0.00 85 1021.5
20190322074943 7 326 0.0 0.0 0.00 0.00 0.00 83 1021.6
20190322074442 7 326 0.0 0.0 0.00 0.00 0.00 83 1021.6
20190322073942 7 326 0.0 0.0 0.00 0.00 0.00 83 1021.5
20190322073442 8 326 0.0 0.0 0.00 0.00 0.00 83 1021.6
20190322072941 8 326 0.0 0.0 0.00 0.00 0.00 83 1021.6
20190322072442 8 326 0.0 0.0 0.00 0.00 0.00 82 1021.6
20190322071942 8 326 0.0 0.0 0.00 0.00 0.00 81 1021.7
20190322071443 8 326 0.0 0.0 0.00 0.00 0.00 81 1021.7
20190322070941 8 326 0.0 0.0 0.00 0.00 0.00 80 1021.7
20190322070442 8 326 0.0 0.0 0.00 0.00 0.00 80 1021.7
20190322065941 8 326 0.0 0.0 0.00 0.00 0.00 80 1021.7
20190322065441 8 326 0.0 0.0 0.00 0.00 0.00 79 1021.7
20190322064941 8 326 0.0 0.0 0.00 0.00 0.00 79 1021.7
20190322064441 8 326 0.0 0.0 0.00 0.00 0.00 79 1021.8
20190322063941 8 326 0.0 0.0 0.00 0.00 0.00 79 1021.7
20190322063440 8 326 0.0 0.0 0.00 0.00 0.00 79 1021.7
20190322062942 8 326 0.0 0.0 0.00 0.00 0.00 80 1021.7
20190322062440 8 326 0.0 0.0 0.00 0.00 0.00 78 1021.7
20190322061941 8 326 0.0 0.0 0.00 0.00 0.00 76 1021.8
20190322061440 9 326 0.0 0.0 0.00 0.00 0.00 75 1021.8
20190322060940 9 326 0.0 0.0 0.00 0.00 0.00 74 1021.7
20190322060440 9 326 0.0 0.0 0.00 0.00 0.00 75 1021.8
20190322055939 9 326 0.0 0.0 0.00 0.00 0.00 76 1021.9
20190322055440 10 326 0.0 0.0 0.00 0.00 0.00 77 1022.0
20190322054939 10 326 0.0 0.0 0.00 0.00 0.00 78 1022.0
20190322054440 10 326 0.0 0.0 0.00 0.00 0.00 73 1021.9
20190322053940 10 326 0.0 0.0 0.00 0.00 0.00 74 1022.0
20190322053441 9 326 0.0 0.0 0.00 0.00 0.00 73 1022.2
20190322052940 9 326 0.0 0.0 0.00 0.00 0.00 72 1022.0
20190322052440 10 326 0.0 0.0 0.00 0.00 0.00 72 1022.0
20190322051939 10 326 0.0 0.0 0.00 0.00 0.00 74 1021.9
20190322051442 10 326 0.0 0.0 0.00 0.00 0.00 74 1022.0
20190322050939 10 326 0.0 0.0 0.00 0.00 0.00 74 1022.0
20190322050439 10 326 0.0 0.0 0.00 0.00 0.00 75 1022.0
20190322045940 10 326 0.0 0.0 0.00 0.00 0.00 78 1022.1
20190322045438 10 326 0.0 0.0 0.00 0.00 0.00 73 1022.0
20190322044939 10 326 0.0 0.0 0.00 0.00 0.00 71 1022.0
20190322044438 10 326 0.0 0.0 0.00 0.00 0.00 69 1022.0
20190322043938 10 326 0.0 0.0 0.00 0.00 0.00 68 1022.0
20190322043437 10 326 0.0 0.0 0.00 0.00 0.00 67 1022.0
20190322042938 10 326 0.0 0.0 0.00 0.00 0.00 68 1022.1
20190322042440 11 326 0.0 0.0 0.00 0.00 0.00 68 1022.1
20190322041938 11 326 0.0 0.0 0.00 0.00 0.00 70 1022.1
20190322041438 11 326 0.0 0.0 0.00 0.00 0.00 69 1022.1
20190322040938 11 326 0.0 0.0 0.00 0.00 0.00 70 1022.1
20190322040437 11 326 0.0 0.0 0.00 0.00 0.00 71 1022.0
20190322035937 11 326 0.0 0.0 0.00 0.00 0.00 68 1021.9
20190322035437 11 326 0.0 0.0 0.00 0.00 0.00 67 1021.9
20190322034937 11 326 0.0 0.0 0.00 0.00 0.00 66 1021.8
20190322034436 11 326 0.0 0.0 0.00 0.00 0.00 66 1021.8
20190322033938 11 326 0.0 0.0 0.00 0.00 0.00 66 1021.7
20190322033436 11 326 0.0 0.0 0.00 0.00 0.00 69 1021.6
20190322032938 11 326 0.0 0.0 0.00 0.00 0.00 67 1021.7
20190322032436 11 326 0.0 0.0 0.00 0.00 0.00 65 1021.7
20190322031936 12 326 0.0 0.0 0.00 0.00 0.00 66 1021.6
20190322031436 12 326 0.0 0.0 0.00 0.00 0.00 66 1021.6
20190322030936 12 326 0.0 0.0 0.00 0.00 0.00 63 1021.5
20190322030436 12 326 0.0 0.0 0.00 0.00 0.00 63 1021.4
20190322025936 12 326 0.0 0.0 0.00 0.00 0.00 62 1021.4
20190322025437 12 326 0.0 0.0 0.00 0.00 0.00 61 1021.2
20190322024935 12 326 0.0 0.0 0.00 0.00 0.00 60 1021.2
20190322024437 13 326 0.0 0.0 0.00 0.00 0.00 59 1021.1
20190322023935 13 326 0.0 0.0 0.00 0.00 0.00 60 1021.0
20190322023435 13 326 0.0 0.0 0.00 0.00 0.00 66 1021.0
20190322022935 13 326 0.0 0.0 0.00 0.00 0.00 61 1021.0
20190322022435 13 326 0.0 0.0 0.00 0.00 0.00 66 1021.0
20190322021935 14 326 0.0 0.0 0.00 0.00 0.00 62 1020.8
20190322021435 15 326 0.0 0.0 0.00 0.00 0.00 55 1020.7
20190322020936 15 326 0.0 0.0 0.00 0.00 0.00 48 1020.7
20190322020434 15 326 0.0 1.6 0.00 0.00 0.00 48 1020.6
20190322015936 15 326 0.0 1.6 0.00 0.00 0.00 53 1020.5
20190322015434 15 326 0.0 0.0 0.00 0.00 0.00 48 1020.4
20190322014934 16 326 0.0 0.0 0.00 0.00 0.00 46 1020.4
20190322014434 16 326 0.0 0.0 0.00 0.00 0.00 49 1020.4
20190322013934 17 326 0.0 0.0 0.00 0.00 0.00 46 1020.4
20190322013434 17 326 0.0 0.0 0.00 0.00 0.00 39 1020.3
20190322012933 17 326 0.0 0.0 0.00 0.00 0.00 36 1020.4
20190322012435 17 326 0.0 0.0 0.00 0.00 0.00 36 1020.4
20190322011933 18 326 0.0 0.0 0.00 0.00 0.00 36 1020.5
20190322011434 18 326 0.0 0.0 0.00 0.00 0.00 35 1020.6
20190322010933 18 326 0.0 0.0 0.00 0.00 0.00 35 1020.6
20190322010433 19 326 0.0 0.0 0.00 0.00 0.00 35 1020.6
20190322005933 19 326 0.0 0.0 0.00 0.00 0.00 33 1020.6
20190322005433 20 326 0.0 0.0 0.00 0.00 0.00 31 1020.6
20190322004934 20 326 0.0 0.0 0.00 0.00 0.00 30 1020.6
20190322004434 20 326 0.0 0.0 0.00 0.00 0.00 29 1020.6
20190322003933 20 326 0.0 0.0 0.00 0.00 0.00 29 1020.6
20190322003433 21 326 0.0 0.0 0.00 0.00 0.00 28 1020.6
20190322002934 21 326 0.0 1.6 0.00 0.00 0.00 27 1020.5
20190322002432 21 326 0.0 1.6 0.00 0.00 0.00 27 1020.5
20190322001932 21 326 0.0 3.2 0.00 0.00 0.00 28 1020.5
20190322001432 22 326 1.6 6.4 0.00 0.00 0.00 27 1020.5
20190322000932 22 27 1.6 6.4 0.00 0.00 0.00 26 1020.5
20190322000432 22 338 0.0 4.8 0.00 0.00 0.00 27 1020.5
20190321235932 22 10 1.6 8.0 0.00 0.00 0.00 25 1020.4
20190321235433 22 310 3.2 8.0 0.00 0.00 0.00 25 1020.5
20190321234933 23 327 3.2 8.0 0.00 0.00 0.00 25 1020.5
20190321234433 23 319 3.2 8.0 0.00 0.00 0.00 24 1020.4
20190321233932 23 18 4.8 14.5 0.00 0.00 0.00 24 1020.4
20190321233431 23 10 6.4 14.5 0.00 0.00 0.00 23 1020.4
20190321232931 23 0 4.8 9.7 0.00 0.00 0.00 25 1020.5
20190321232431 23 327 3.2 9.7 0.00 0.00 0.00 24 1020.3
20190321231932 23 312 6.4 9.7 0.00 0.00 0.00 25 1020.4
20190321231431 24 281 3.2 11.3 0.00 0.00 0.00 23 1020.3
20190321230931 25 320 3.2 11.3 0.00 0.00 0.00 23 1020.4
20190321230430 25 306 3.2 11.3 0.00 0.00 0.00 24 1020.4
20190321225932 25 244 3.2 11.3 0.00 0.00 0.00 25 1020.4
20190321225431 25 323 3.2 14.5 0.00 0.00 0.00 24 1020.5
20190321224931 25 334 6.4 14.5 0.00 0.00 0.00 23 1020.5
20190321224431 25 321 6.4 11.3 0.00 0.00 0.00 23 1020.6
20190321223930 25 27 6.4 11.3 0.00 0.00 0.00 22 1020.5
20190321223431 25 336 1.6 14.5 0.00 0.00 0.00 24 1020.6
20190321222930 25 336 4.8 14.5 0.00 0.00 0.00 24 1020.7
20190321222430 25 316 3.2 11.3 0.00 0.00 0.00 22 1020.7
20190321221931 25 283 6.4 11.3 0.00 0.00 0.00 22 1020.8
20190321221431 25 306 1.6 16.1 0.00 0.00 0.00 23 1020.8
20190321220929 25 348 6.4 19.3 0.00 0.00 0.00 22 1020.8
20190321220429 25 213 9.7 19.3 0.00 0.00 0.00 21 1021.0
20190321215929 25 275 9.7 16.1 0.00 0.00 0.00 22 1020.9
20190321215429 25 348 8.0 14.5 0.00 0.00 0.00 24 1021.0
20190321214930 25 337 6.4 16.1 0.00 0.00 0.00 22 1021.0
20190321214429 25 299 4.8 17.7 0.00 0.00 0.00 22 1021.0
20190321213930 25 278 8.0 17.7 0.00 0.00 0.00 24 1021.1
20190321213429 25 321 4.8 16.1 0.00 0.00 0.00 24 1021.0
20190321212929 25 262 8.0 16.1 0.00 0.00 0.00 23 1021.2
20190321212429 25 357 4.8 17.7 0.00 0.00 0.00 22 1021.2
20190321211928 25 314 8.0 17.7 0.00 0.00 0.00 23 1021.2
20190321211428 24 237 4.8 14.5 0.00 0.00 0.00 24 1021.3
20190321210928 24 337 3.2 8.0 0.00 0.00 0.00 25 1021.4
20190321210429 24 323 4.8 11.3 0.00 0.00 0.00 24 1021.3
20190321205928 24 296 6.4 17.7 0.00 0.00 0.00 24 1021.4
20190321205428 24 269 6.4 17.7 0.00 0.00 0.00 23 1021.4
20190321204927 25 274 6.4 14.5 0.00 0.00 0.00 23 1021.4
20190321204428 25 281 0.0 14.5 0.00 0.00 0.00 23 1021.5
20190321203927 25 265 6.4 16.1 0.00 0.00 0.00 22 1021.5
20190321203427 24 231 6.4 16.1 0.00 0.00 0.00 23 1021.6
20190321202928 24 6 8.0 16.1 0.00 0.00 0.00 24 1021.6
20190321202426 24 204 6.4 16.1 0.00 0.00 0.00 24 1021.7
20190321201927 24 278 8.0 16.1 0.00 0.00 0.00 22 1021.8
20190321201428 25 306 4.8 14.5 0.00 0.00 0.00 23 1021.8
20190321200928 25 28 6.4 16.1 0.00 0.00 0.00 23 1021.9
20190321200427 24 186 6.4 16.1 0.00 0.00 0.00 23 1022.1
20190321195927 24 333 3.2 14.5 0.00 0.00 0.00 24 1021.9
20190321195426 24 316 6.4 16.1 0.00 0.00 0.00 22 1022.1
20190321194926 24 299 9.7 20.9 0.00 0.00 0.00 22 1022.1
20190321194427 24 336 4.8 20.9 0.00 0.00 0.00 23 1022.2
20190321193926 24 327 6.4 11.3 0.00 0.00 0.00 25 1022.2
20190321193427 24 290 6.4 17.7 0.00 0.00 0.00 24 1022.3
20190321192925 24 283 8.0 20.9 0.00 0.00 0.00 23 1022.4
20190321192427 24 265 12.9 20.9 0.00 0.00 0.00 23 1022.4
20190321191926 24 32 6.4 17.7 0.00 0.00 0.00 25 1022.5
20190321191425 24 55 8.0 16.1 0.00 0.00 0.00 25 1022.6
20190321190925 24 20 3.2 16.1 0.00 0.00 0.00 24 1022.7
20190321190425 24 323 8.0 17.7 0.00 0.00 0.00 24 1022.7
20190321185926 23 244 9.7 20.9 0.00 0.00 0.00 23 1022.9
20190321185425 23 10 6.4 20.9 0.00 0.00 0.00 22 1023.0
20190321184926 23 233 8.0 17.7 0.00 0.00 0.00 21 1022.9
20190321184424 23 234 6.4 17.7 0.00 0.00 0.00 26 1023.0
20190321183925 23 314 9.7 17.7 0.00 0.00 0.00 25 1023.1
20190321183424 23 319 8.0 19.3 0.00 0.00 0.00 26 1023.1
20190321182924 23 18 11.3 20.9 0.00 0.00 0.00 28 1023.3
20190321182425 23 323 11.3 20.9 0.00 0.00 0.00 28 1023.3
20190321181924 23 228 8.0 19.3 0.00 0.00 0.00 30 1023.4
20190321181424 23 278 6.4 19.3 0.00 0.00 0.00 29 1023.7
20190321180923 23 285 9.7 19.3 0.00 0.00 0.00 31 1023.7
20190321180425 22 3 9.7 19.3 0.00 0.00 0.00 31 1023.7
20190321175924 22 327 4.8 19.3 0.00 0.00 0.00 31 1023.7
20190321175424 22 358 11.3 19.3 0.00 0.00 0.00 29 1023.8
20190321174924 22 323 8.0 20.9 0.00 0.00 0.00 32 1023.9
20190321174424 22 300 9.7 20.9 0.00 0.00 0.00 34 1023.9
20190321173923 22 266 9.7 22.5 0.00 0.00 0.00 32 1023.8
20190321173423 22 338 8.0 22.5 0.00 0.00 0.00 34 1023.9
20190321172923 22 326 9.7 20.9 0.00 0.00 0.00 35 1024.0
20190321172423 22 37 8.0 17.7 0.00 0.00 0.00 35 1024.0
20190321171924 22 268 8.0 17.7 0.00 0.00 0.00 34 1024.1
20190321171423 22 235 6.4 22.5 0.00 0.00 0.00 36 1024.0
20190321170923 21 338 8.0 22.5 0.00 0.00 0.00 35 1024.0
20190321170422 21 238 11.3 19.3 0.00 0.00 0.00 35 1024.1